Location: Sabalos
(43.2860°N, 0.1414°E)
Time: 10:52:40
(UTC+00:00)

Cosmos 1943 Rocket - Pass Details

Date: 05 July 2020
Orbit: 811 x 845 km, 71.0° (Epoch: 05 August)

Event Time Altitude Azimuth Distance (km) Brightness Sun altitude
Rises 22:53:37 0° 344° (NNW) 3,414 6.9 -22.1°
Reaches altitude 10° 22:56:36 10° 358° (N) 2,475 5.7 -22.2°
Maximum altitude 23:01:05 23° 50° (NE) 1,710 4.0 -22.5°
Enters shadow 23:04:38 14° 96° (E) 2,216 4.2 -22.6°
